Socorro, NM

9:05 PM MDT on July 22, 2017 (GMT -0600)
Socorro Municipal

Weather History for KONM - March, 2013

Change the Weather History Date:

Tuesday, March 19, 2013

  Actual Average Record
Temperature  
Mean Temperature 58 °F -  
Max Temperature 69 °F 67 °F 83 °F (2017)
Min Temperature 46 °F 30 °F 32 °F (2012)
Degree Days  
Heating Degree Days 7    
Growing Degree Days 8 (Base 50)    
Moisture  
Dew Point 13 °F    
Average Humidity 19    
Maximum Humidity 33    
Minimum Humidity 11    
Precipitation  
Precipitation 0.00 in - - ()
Sea Level Pressure  
Sea Level Pressure 30.06 in    
Wind  
Wind Speed 6 mph (NNW)    
Max Wind Speed 17 mph    
Max Gust Speed 32 mph    
Visibility 10 miles    
Events      
Averages and records for this station are not official NWS values.
T = Trace of Precipitation, MM = Missing Value Source: NWS Daily Summary

Daily Weather History Graph

Daily Weather History Graph

Search for Another Location

Airport or City:

Trip Planner

Search our weather history database for the weather conditions in past years. The results will help you decide how hot, cold, wet, or windy it might be!

Date:

Astronomy

Mar. 19, 2013 Rise Set
Actual Time 7:12 AM MDT 7:18 PM MDT
Civil Twilight 6:47 AM MDT 7:43 PM MDT
Nautical Twilight 6:18 AM MDT 8:12 PM MDT
Astronomical Twilight 5:48 AM MDT 8:42 PM MDT
Moon 12:19 PM MDT (3/19) 1:53 AM MDT (3/19)
Length of Visible Light 12h 56m
Length of Day
12h 06m
Waxing Crescent, 50% of the Moon is Illuminated
Mar 19
Waxing Crescent
Mar 27
Full
Apr 2
Last Quarter
Apr 10
New
Apr 18
First Quarter

Hourly Weather History & Observations

Time (MDT) Temp. Windchill Dew Point Humidity Pressure Visibility Wind Dir Wind Speed Gust Speed Precip Events Conditions
12:15 AM 57.2 °F - 3.0 °F 11% 30.02 in 10.0 mi WNW 10.4 mph - N/A   Clear
12:35 AM 55.4 °F - 2.3 °F 12% 30.01 in 10.0 mi NW 10.4 mph - N/A   Clear
12:55 AM 59.7 °F - 6.1 °F 12% 30.01 in 10.0 mi WNW 11.5 mph - N/A   Clear
1:15 AM 58.6 °F - 7.2 °F 13% 30.01 in 10.0 mi WNW 9.2 mph - N/A   Clear
1:35 AM 59.4 °F - 7.7 °F 13% 30.01 in 10.0 mi WNW 10.4 mph - N/A   Clear
1:55 AM 58.8 °F - 8.2 °F 13% 30.01 in 10.0 mi WNW 5.8 mph - N/A   Clear
2:15 AM 57.0 °F - 7.0 °F 14% 30.01 in 10.0 mi North 4.6 mph - N/A   Clear
2:35 AM 56.8 °F - 8.1 °F 14% 30.00 in 10.0 mi NNW 3.5 mph - N/A   Clear
2:55 AM 54.7 °F - 7.0 °F 15% 30.01 in 10.0 mi Calm Calm - N/A   Clear
3:15 AM 52.9 °F - 5.0 °F 14% 30.00 in 10.0 mi Calm Calm - N/A   Clear
3:35 AM 50.7 °F - 3.2 °F 14% 30.00 in 10.0 mi South 3.5 mph - N/A   Clear
3:55 AM 49.3 °F - 3.2 °F 15% 30.00 in 10.0 mi South 3.5 mph - N/A   Clear
4:15 AM 50.2 °F - 2.8 °F 14% 30.00 in 10.0 mi SSW 4.6 mph - N/A   Clear
4:35 AM 50.0 °F - 2.3 °F 14% 30.00 in 10.0 mi WSW 4.6 mph - N/A   Clear
4:55 AM 50.7 °F - 2.8 °F 14% 30.00 in 10.0 mi Calm Calm - N/A   Clear
5:15 AM 50.4 °F - 4.5 °F 15% 30.00 in 10.0 mi Calm Calm - N/A   Clear
5:35 AM 51.3 °F - 7.9 °F 17% 30.00 in 10.0 mi North 4.6 mph - N/A   Clear
5:55 AM 50.0 °F - 8.2 °F 19% 30.00 in 10.0 mi NNW 4.6 mph - N/A   Clear
6:15 AM 50.7 °F - 9.0 °F 19% 30.01 in 10.0 mi South 8.1 mph - N/A   Clear
6:35 AM 49.8 °F - 9.7 °F 20% 30.00 in 10.0 mi SSW 4.6 mph - N/A   Clear
6:55 AM 49.5 °F - 9.0 °F 19% 30.02 in 10.0 mi South 3.5 mph - N/A   Clear
7:15 AM 47.7 °F - 8.2 °F 20% 30.02 in 10.0 mi South 4.6 mph - N/A   Clear
7:35 AM 50.2 °F - 7.7 °F 18% 30.02 in 10.0 mi South 3.5 mph - N/A   Clear
7:55 AM 49.5 °F - 8.1 °F 19% 30.04 in 10.0 mi South 3.5 mph - N/A   Clear
8:15 AM 49.3 °F - 8.6 °F 19% 30.04 in 10.0 mi Calm Calm - N/A   Scattered Clouds
8:35 AM 49.8 °F - 8.8 °F 19% 30.05 in 10.0 mi NNW 4.6 mph - N/A   Scattered Clouds
8:55 AM 47.3 °F - 9.1 °F 21% 30.06 in 10.0 mi Calm Calm - N/A   Clear
9:15 AM 48.2 °F - 9.3 °F 21% 30.06 in 10.0 mi Calm Calm - N/A   Clear
9:35 AM 49.6 °F - 9.5 °F 20% 30.06 in 10.0 mi NE 3.5 mph - N/A   Clear
9:55 AM 49.6 °F - 8.2 °F 19% 30.06 in 10.0 mi Calm Calm - N/A   Clear
10:15 AM 50.2 °F - 8.2 °F 18% 30.06 in 10.0 mi Calm Calm - N/A   Clear
10:35 AM 51.1 °F - 7.7 °F 17% 30.07 in 10.0 mi Calm Calm - N/A   Clear
10:55 AM 51.8 °F - 7.7 °F 17% 30.07 in 10.0 mi Calm Calm - N/A   Clear
11:15 AM 54.7 °F - 8.4 °F 16% 30.07 in 10.0 mi Calm Calm - N/A   Clear
11:35 AM 55.9 °F - 8.8 °F 15% 30.08 in 10.0 mi Calm Calm - N/A   Clear
11:55 AM 57.6 °F - 10.0 °F 15% 30.07 in 10.0 mi Calm Calm - N/A   Clear
12:15 PM 60.1 °F - 12.0 °F 15% 30.07 in 10.0 mi Calm Calm - N/A   Clear
12:35 PM 63.5 °F - 13.3 °F 14% 30.06 in 10.0 mi ENE 4.6 mph - N/A   Clear
12:55 PM 65.1 °F - 13.1 °F 13% 30.05 in 10.0 mi North 10.4 mph - N/A   Clear
1:15 PM 67.6 °F - 13.6 °F 12% 30.05 in 10.0 mi North 12.7 mph 23.0 mph N/A   Clear
1:35 PM 69.1 °F - 14.9 °F 12% 30.04 in 10.0 mi NNE 5.8 mph 18.4 mph N/A   Clear
1:55 PM 66.9 °F - 14.5 °F 13% 30.03 in 10.0 mi North 8.1 mph 17.3 mph N/A   Mostly Cloudy
2:15 PM 66.4 °F - 14.9 °F 14% 30.02 in 10.0 mi North 15.0 mph - N/A   Overcast
2:35 PM 65.1 °F - 14.9 °F 14% 30.02 in 10.0 mi Calm Calm - N/A   Overcast
2:55 PM 65.3 °F - 14.4 °F 14% 30.03 in 10.0 mi North 13.8 mph 19.6 mph N/A   Overcast
3:15 PM 64.9 °F - 15.8 °F 15% 30.04 in 10.0 mi North 10.4 mph - N/A   Overcast
3:35 PM 64.2 °F - 17.6 °F 17% 30.04 in 10.0 mi NNE 9.2 mph - N/A   Overcast
3:55 PM 64.9 °F - 19.0 °F 17% 30.02 in 10.0 mi Calm Calm - N/A   Mostly Cloudy
4:15 PM 65.7 °F - 18.9 °F 17% 30.03 in 10.0 mi North 8.1 mph - N/A   Clear
4:35 PM 64.8 °F - 18.3 °F 17% 30.02 in 10.0 mi North 5.8 mph - N/A   Clear
4:55 PM 65.3 °F - 16.7 °F 15% 30.03 in 10.0 mi North 5.8 mph - N/A   Clear
5:15 PM 65.1 °F - 16.0 °F 15% 30.04 in 10.0 mi North 15.0 mph 19.6 mph N/A   Scattered Clouds
5:35 PM 63.7 °F - 18.1 °F 17% 30.05 in 10.0 mi NW 5.8 mph 19.6 mph N/A   Mostly Cloudy
5:55 PM 62.8 °F - 21.2 °F 20% 30.08 in 10.0 mi NNW 17.3 mph 32.2 mph N/A   Overcast
6:15 PM 61.9 °F - 22.6 °F 22% 30.08 in 10.0 mi NE 13.8 mph 32.2 mph N/A   Overcast
6:35 PM 61.0 °F - 24.1 °F 24% 30.08 in 10.0 mi NE 4.6 mph 23.0 mph N/A   Overcast
6:55 PM 58.8 °F - 27.0 °F 30% 30.10 in 10.0 mi ENE 11.5 mph 18.4 mph N/A   Overcast
7:15 PM 59.4 °F - 25.3 °F 27% 30.09 in 10.0 mi South 4.6 mph - N/A   Overcast
7:35 PM 58.8 °F - 24.8 °F 27% 30.09 in 10.0 mi South 8.1 mph - N/A   Overcast
7:55 PM 57.2 °F - 23.9 °F 28% 30.11 in 10.0 mi WNW 4.6 mph - N/A   Overcast
8:15 PM 57.2 °F - 23.0 °F 27% 30.11 in 10.0 mi NNE 4.6 mph - N/A   Scattered Clouds
8:35 PM 55.2 °F - 22.3 °F 28% 30.12 in 10.0 mi North 3.5 mph - N/A   Clear
8:55 PM 50.7 °F - 21.4 °F 32% 30.13 in 10.0 mi Calm Calm - N/A   Clear
9:15 PM 49.1 °F - 19.9 °F 32% 30.14 in 10.0 mi Calm Calm - N/A   Clear
9:35 PM 49.3 °F - 21.4 °F 33% 30.15 in 10.0 mi West 5.8 mph - N/A   Clear
9:55 PM 48.4 °F - 20.7 °F 33% 30.15 in 10.0 mi WNW 6.9 mph - N/A   Clear
10:15 PM 50.7 °F - 19.2 °F 29% 30.17 in 10.0 mi NNW 5.8 mph - N/A   Clear
10:35 PM 50.2 °F - 17.1 °F 27% 30.18 in 10.0 mi NNW 8.1 mph - N/A   Clear
10:55 PM 49.3 °F - 15.4 °F 26% 30.18 in 10.0 mi NNW 6.9 mph - N/A   Clear
11:15 PM 48.4 °F - 14.0 °F 25% 30.19 in 10.0 mi North 8.1 mph - N/A   Clear
11:35 PM 47.3 °F - 14.4 °F 27% 30.19 in 10.0 mi North 8.1 mph - N/A   Clear
11:55 PM 46.0 °F 44.8 °F 14.0 °F 28% 30.20 in 10.0 mi East 3.5 mph - N/A   Clear